Weather History for KCMX - March, 2013

Change the Weather History Date:

Sunday, March 10, 2013

  Actual Average Record
Temperature  
Mean Temperature 32 °F -  
Max Temperature 33 °F 29 °F 57 °F (2015)
Min Temperature 30 °F 13 °F -11 °F (1972)
Degree Days  
Heating Degree Days 34    
Moisture  
Dew Point 29 °F    
Average Humidity 89    
Maximum Humidity 100    
Minimum Humidity 72    
Precipitation  
Precipitation 0.03 in - - ()
Sea Level Pressure  
Sea Level Pressure 29.85 in    
Wind  
Wind Speed 10 mph (NW)    
Max Wind Speed 18 mph    
Max Gust Speed 24 mph    
Visibility 7 miles    
Events Fog , Snow    
Averages and records for this station are not official NWS values.
T = Trace of Precipitation, MM = Missing Value Source: NWS Daily Summary

Daily Weather History Graph

Daily Weather History Graph

Search for Another Location

Airport or City:

Trip Planner

Search our weather history database for the weather conditions in past years. The results will help you decide how hot, cold, wet, or windy it might be!

Date:

Astronomy

Mar. 10, 2013 Rise Set
Actual Time 8:16 AM EDT 7:52 PM EDT
Civil Twilight 7:45 AM EDT 8:23 PM EDT
Nautical Twilight 7:10 AM EDT 8:58 PM EDT
Astronomical Twilight 6:34 AM EDT 9:34 PM EDT
Moon 7:18 AM EDT (3/10) 6:59 PM EDT (3/10)
Length of Visible Light 12h 37m
Length of Day
11h 36m
Waning Crescent, 2% of the Moon is Illuminated
Mar 10
Waning Crescent
Mar 11
New
Mar 19
First Quarter
Mar 27
Full
Apr 3
Last Quarter

Hourly Weather History & Observations

Time (EDT) Temp. Windchill Dew Point Humidity Pressure Visibility Wind Dir Wind Speed Gust Speed Precip Events Conditions
12:22 AM 32.0 °F 25.6 °F 32.0 °F 100% 29.75 in 5.0 mi South 6.9 mph - 0.00 in   Overcast
12:53 AM 32.0 °F 24.8 °F 32.0 °F 100% 29.79 in 5.0 mi South 8.1 mph - 0.00 in   Overcast
1:53 AM 32.0 °F 27.5 °F 32.0 °F 100% 29.77 in 3.0 mi South 4.6 mph - 0.03 in Snow Light Snow
3:14 AM 32.0 °F 27.5 °F 32.0 °F 100% 29.74 in 4.0 mi SSW 4.6 mph - 0.00 in   Overcast
3:53 AM 33.1 °F 28.7 °F 32.0 °F 96% 29.77 in 6.0 mi SW 4.6 mph - 0.00 in   Overcast
4:09 AM 33.8 °F 30.8 °F 32.0 °F 93% 29.72 in 7.0 mi SW 3.5 mph - N/A   Overcast
4:53 AM 33.1 °F 27.7 °F 32.0 °F 96% 29.77 in 10.0 mi West 5.8 mph - N/A   Overcast
5:19 AM 33.8 °F 27.0 °F 32.0 °F 93% 29.72 in 6.0 mi West 8.1 mph - N/A   Overcast
5:37 AM 33.8 °F 26.4 °F 32.0 °F 93% 29.72 in 2.5 mi West 9.2 mph - N/A   Overcast
5:51 AM 33.8 °F 25.3 °F 33.8 °F 100% 29.73 in 1.5 mi West 11.5 mph - N/A   Overcast
5:53 AM 33.1 °F 24.4 °F 33.1 °F 100% 29.77 in 1.5 mi West 11.5 mph - N/A   Overcast
6:12 AM 33.8 °F 24.8 °F 33.8 °F 100% 29.73 in 2.0 mi WNW 12.7 mph - N/A   Overcast
6:19 AM 33.8 °F 24.8 °F 33.8 °F 100% 29.74 in 1.0 mi WNW 12.7 mph - N/A   Overcast
6:27 AM 33.8 °F 25.3 °F 33.8 °F 100% 29.74 in 0.5 mi WNW 11.5 mph - N/A Fog Fog
6:53 AM 33.1 °F 23.9 °F 32.0 °F 96% 29.78 in 0.2 mi WNW 12.7 mph - N/A Fog Fog
7:45 AM 32.0 °F 23.0 °F 32.0 °F 100% 29.77 in 0.8 mi WNW 11.5 mph - N/A   Mist
7:49 AM 32.0 °F 23.0 °F 32.0 °F 100% 29.77 in 2.0 mi WNW 11.5 mph - N/A   Overcast
7:53 AM 32.0 °F 23.6 °F 32.0 °F 100% 29.77 in 3.0 mi WNW 10.4 mph - N/A   Overcast
8:53 AM 32.0 °F 22.1 °F 30.9 °F 96% 29.82 in 9.0 mi WNW 13.8 mph - N/A   Overcast
9:41 AM 32.0 °F 23.6 °F 30.2 °F 93% 29.81 in 10.0 mi NW 10.4 mph - N/A   Overcast
9:53 AM 33.1 °F 23.9 °F 30.9 °F 92% 29.85 in 10.0 mi NW 12.7 mph - N/A   Overcast
10:53 AM 33.1 °F 23.9 °F 30.0 °F 89% 29.86 in 10.0 mi NNW 12.7 mph - N/A   Overcast
11:43 AM 33.8 °F 25.3 °F 30.2 °F 87% 29.88 in 10.0 mi NNW 11.5 mph - N/A   Overcast
11:53 AM 33.1 °F 24.9 °F 30.0 °F 89% 29.93 in 10.0 mi NNW 10.4 mph - N/A   Overcast
12:53 PM 33.1 °F 21.9 °F 28.0 °F 82% 29.92 in 10.0 mi North 18.4 mph 23.0 mph N/A   Overcast
1:10 PM 33.8 °F 24.3 °F 28.4 °F 81% 29.89 in 10.0 mi North 13.8 mph - N/A   Overcast
1:53 PM 33.1 °F 22.6 °F 28.0 °F 82% 29.96 in 10.0 mi NNW 16.1 mph 20.7 mph N/A   Overcast
2:27 PM 33.8 °F 23.9 °F 26.6 °F 75% 29.93 in 10.0 mi NNW 15.0 mph - N/A   Overcast
2:53 PM 32.0 °F 22.5 °F 27.0 °F 82% 29.96 in 10.0 mi NNW 12.7 mph - N/A   Overcast
3:53 PM 32.0 °F 23.0 °F 27.0 °F 82% 29.97 in 10.0 mi North 11.5 mph - N/A   Overcast
4:43 PM 30.2 °F 19.8 °F 24.8 °F 80% 29.93 in 10.0 mi North 13.8 mph - N/A   Overcast
4:53 PM 30.9 °F 20.2 °F 25.0 °F 79% 29.97 in 10.0 mi NNE 15.0 mph 24.2 mph N/A   Overcast
5:53 PM 30.9 °F 22.2 °F 24.1 °F 76% 29.99 in 10.0 mi NNE 10.4 mph - N/A   Overcast
6:53 PM 30.0 °F 19.1 °F 24.1 °F 79% 29.99 in 10.0 mi North 15.0 mph - N/A   Overcast
7:53 PM 30.0 °F 20.0 °F 23.0 °F 75% 29.99 in 10.0 mi NNE 12.7 mph 19.6 mph N/A   Overcast
8:53 PM 30.0 °F 20.5 °F 23.0 °F 75% 30.00 in 10.0 mi NNE 11.5 mph 21.9 mph N/A   Overcast
9:53 PM 30.0 °F 19.1 °F 24.1 °F 79% 30.00 in 10.0 mi NE 15.0 mph - N/A   Overcast
10:53 PM 30.0 °F 20.5 °F 25.0 °F 82% 29.99 in 10.0 mi NE 11.5 mph - N/A   Overcast
11:53 PM 30.0 °F 21.1 °F 23.0 °F 75% 29.96 in 10.0 mi NE 10.4 mph - N/A   Overcast
12:53 AM 30.0 °F 20.0 °F 21.9 °F 72% 29.94 in 10.0 mi NE 12.7 mph - N/A   Overcast